Regional Weather Roundup
Issued by NWS

Home | Current Version | Previous Version | Graphics & Text | Print | Product List | Glossary On
Versions: 1 2 3 4 5 6 7 8 9 10 11 12 13 14 15 16 17 18 19 20 21 22 23 24 25 26 27 28 29 30 31 32 33 34 35 36 37 38 39 40 41 42 43 44 45 46 47 48 49 50
000
ASUS43 KMPX 291110
RWRMN
WEATHER ROUNDUP FOR MINNESOTA
NATIONAL WEATHER SERVICE TWIN CITIES/CHANHASSEN MN
600 AM CDT SAT APR 29 2017


NOTE: "FAIR" INDICATES FEW OR NO CLOUDS BELOW 12,000 FEET WITH NO
SIGNIFICANT WEATHER AND/OR OBSTRUCTIONS TO VISIBILITY. N/A MEANS
CURRENT SKY AND/OR WEATHER CONDITIONS ARE NOT AVAILABLE.

MNZ060>063-068>070-291200-
   Twin Cities Metro

CITY           SKY/WX    TMP DP  RH WIND       PRES   REMARKS
TWIN CITIES    MOCLDY    39  26  59 E10G20    30.24R
ST PAUL        MOCLDY    38  28  67 E8        30.25R
CRYSTAL        CLOUDY    38  25  59 E6        30.23R
LAKEVILLE      PTCLDY    36  28  75 NE8       30.22R
EDEN PRAIRIE   MOCLDY    40  25  55 E9        30.22R
SOUTH ST PAUL  CLOUDY    38  27  65 E5        30.23R
LAKE ELMO      FAIR      34  30  86 E5        30.24R WCI  30
$$
MNZ001>005-007-008-013>017-022>024-027-028-291200-
   Northwest Minnesota

CITY           SKY/WX    TMP DP  RH WIND       PRES   REMARKS
BEMIDJI        CLEAR     23  20  87 CALM      30.24R
HALLOCK        CLEAR     27  23  86 CALM      30.26R
ROSEAU         CLEAR     28  21  74 CALM      30.25R
WARROAD        PTCLDY    27  19  74 CALM      30.25S
THIEF RVR FALL CLEAR     29  19  66 CALM      30.26R
CROOKSTON      CLEAR     30  25  80 CALM      30.27R
FOSSTON        CLEAR     19  12  73 CALM      30.25S
DETROIT LAKES  CLEAR     32  30  93 CALM      30.23F
MOORHEAD       CLEAR     28  25  86 CALM      30.25F
PARK RAPIDS    CLEAR     25  18  74 N3        30.21F
MAHNOMEN       FAIR      29  24  80 SE5       30.24S WCI  24
$$
MNZ006-009>011-018-025>026-291200-
   North Central Minnesota

CITY           SKY/WX    TMP DP  RH WIND       PRES   REMARKS
BAUDETTE       CLEAR     24  20  84 CALM      30.23R
FLAG ISLAND    CLEAR     34  27  75 N3        30.24S
INTL FALLS     CLEAR     20  17  88 CALM      30.24S
WASKISH        CLEAR     25  23  93 CALM      30.24R
BIG FORK       CLEAR     21  21 100 CALM      30.23S
LONGVILLE      CLEAR     27  25  93 CALM      30.22F
GRAND RAPIDS   CLEAR     22  20  92 CALM      30.25R
CRANE LAKE     CLEAR     18  18 100 CALM      30.26F
ORR            CLEAR     21  18  86 CALM      30.19F
COOK           CLEAR     21  19  93 CALM      30.22F
WALKER         FAIR      25  23  91 NW5       30.23S WCI  19
$$
MNZ012-019>021-037-291200-
   Northeast Minnesota

CITY           SKY/WX    TMP DP  RH WIND       PRES   REMARKS
DULUTH         CLEAR     32  26  78 N6        30.20S WCI  26
ELY            CLEAR     19  19 100 CALM      30.21F
HIBBING        CLEAR     20  19  96 CALM      30.22S
EVELETH        CLEAR     22  20  91 CALM      30.23S
DULUTH HARBOR  CLEAR     36  30  80 NE5       30.24R
TWO HARBORS    CLEAR     30  25  80 CALM      30.20S
SILVER BAY     CLEAR     25  25 100 CALM      30.20S
GRAND MARAIS     N/A     33  24  69 N9        30.23F WCI  25
G MARAIS ARPRT CLEAR     19  16  86 CALM      30.19F
$$
MNZ029>031-032-039>041-046>048-054>057-064-291200-
   West Central Minnesota

CITY           SKY/WX    TMP DP  RH WIND       PRES   REMARKS
FERGUS FALLS   CLOUDY    34  21  60 E5        30.26R WCI  30
WHEATON        CLOUDY    30  27  86 N3        30.25F
MORRIS         CLOUDY    28  21  74 N3        30.23R
ALEXANDRIA     CLEAR     32  21  64 CALM      30.23R
ELBOW LAKE     FAIR      33  29  85 CALM      30.25R
WADENA         CLOUDY    25  19  80 CALM      30.23R
GLENWOOD       CLOUDY    32  23  69 N5        30.23R WCI  27
APPLETON       CLOUDY    28  21  74 NE3       30.23R
BENSON         PTCLDY    27  21  80 CALM      30.25R
ORTONVILLE     CLOUDY    28  23  80 N6        30.22S WCI  22
MADISON        PTCLDY    34  25  69 N3        30.23R
WILLMAR        FAIR      36  27  69 E6        30.25R
$$
MNZ033>034-036-042>043-049>051-058-059-291200-
   Central Minnesota

CITY           SKY/WX    TMP DP  RH WIND       PRES   REMARKS
ST CLOUD       CLOUDY    29  26  89 CALM      30.24R
SAUK CENTRE    FAIR      28  25  89 CALM      30.23R
PAYNESVILLE    MOCLDY    32  26  77 CALM      30.24R
AITKIN         CLEAR     27  23  86 CALM      30.21R
PINE RIVER     CLOUDY    25  21  86 CALM      30.25F
BRAINERD       FOG       27  24  89 CALM      30.23S VSB 3/4
STAPLES        CLOUDY    25  19  80 CALM      30.23R
LONG PRAIRIE   FAIR      28  23  80 NW3       30.23R
LITTLE FALLS   CLOUDY    25  21  86 CALM      30.24R
LITCHFIELD     CLOUDY    37  28  70 NE5       30.23R
BUFFALO        CLOUDY    36  27  70 NE6       30.24R
MAPLE LAKE     CLOUDY    35  29  78 NE3       30.25R
HUTCHINSON     CLEAR     37  28  70 E7        30.25R
$$
MNZ037-044-045-052-053-291200-
   East Central Minnesota

CITY           SKY/WX    TMP DP  RH WIND       PRES   REMARKS
PRINCETON      CLOUDY    28  27  93 CALM      30.24R
MORA           CLOUDY    30  27  86 CALM      30.24R
CAMBRIDGE      CLOUDY    34  25  69 CALM      30.23R
RUSH CITY      PTCLDY    30  26  84 CALM      30.24R
MOOSE LAKE     CLEAR     27  23  86 CALM      30.21R
HINCKLEY       FAIR      27  27 100 CALM      30.22R
CLOQUET        CLEAR     25  21  86 NW5       30.21R WCI  19
MCGREGOR       CLEAR     27  23  86 CALM      30.22R
$$
MNZ071>073-080-081-089-090-097-098-291200-
   Southwest Minnesota

CITY           SKY/WX    TMP DP  RH WIND       PRES   REMARKS
MONTEVIDEO     MOCLDY    30  23  74 CALM      30.24R
GRANITE FALLS  CLOUDY    34  27  74 NE5       30.26R WCI  30
CANBY          MOCLDY    32  26  77 CALM      30.24R
MARSHALL       MOCLDY    31  25  78 CALM      30.23R
REDWOOD FALLS  CLOUDY    37  26  64 E6        30.25R
OLIVIA         CLOUDY    34  28  80 CALM      30.24R
PIPESTONE      CLOUDY    37  19  48 E7        30.17F
WINDOM         CLOUDY    36  27  69 N9        30.18S
WORTHINGTON    CLOUDY    34  26  72 NE13      30.16S WCI  25
JACKSON        CLOUDY    36  30  80 NE10      30.17R
TRACY          MOCLDY    33  27  77 N6        30.21R WCI  28
SLAYTON        CLOUDY    35  25  68 NE8       30.19F WCI  28
$$
MNZ065>067-074>077-082>085-091>093-291200-
   South Central Minnesota

CITY           SKY/WX    TMP DP  RH WIND       PRES   REMARKS
MANKATO        PTCLDY    39  29  67 NE17      30.22R
NEW ULM        MOCLDY    37  27  65 NE9       30.22R
ST JAMES       CLOUDY    36  30  80 N8        30.21R
FAIRMONT       CLOUDY    37  29  72 NE10      30.21R
GLENCOE        CLOUDY    38  30  72 E6        30.23R
FARIBAULT      CLOUDY    37  28  70 NE8       30.21R
OWATONNA       MOCLDY    36  28  75 E10       30.23R
WASECA         PTCLDY    36  30  80 E12       30.26R
ALBERT LEA     CLOUDY    36  28  75 NE9       30.21R
$$
MNZ078>079-086>088-094>096-291200-
   Southeast Minnesota

CITY           SKY/WX    TMP DP  RH WIND       PRES   REMARKS
ROCHESTER      CLEAR     34  29  82 NE15      30.21R WCI  24
RED WING       CLOUDY    37  25  60 E7        30.24R
STANTON        PTCLDY    36  30  78 NE7       30.20R
DODGE CENTER   PTCLDY    34  28  80 E14       30.22R WCI  24
WINONA         PTCLDY    36  30  80 CALM      30.26R
AUSTIN         CLEAR     36  30  80 NE8       30.18F
PRESTON        CLEAR     35  30  82 NE9       30.20R WCI  27
$$
ABBREVIATIONS USED IN REMARKS
   TC - TEMPERATURES IN CELSIUS
  WCI - WIND CHILL INDEX
   HX - HEAT INDEX
  VSB - VISIBILITY
$$




USA.gov is the U.S. government's official web portal to all federal, state and local government web resources and services.